DECAYED

NOAA 16 DEB, 41431 (Decayed)

Orbit data source: Space-Track

NOAA 16 DEB, 41431 was space debris in SSO originally from a launch on Thu, 21 Sep 2000 UTC launched from the Air Force Western Test Range (AFWTR). Debris objects in space refer to the collection of defunct objects orbiting the Earth. Examples of debris include non-operational satellites, rocket bodies, and fragments generated from explosions, collisions, or faulty payload assembly.

Loading next visibility...
Identifier
41431, 2000-055LL
Orbit
Decayed
Last TLE update
9 months ago
Origin
Manufacturer
Unknown
Mission
Decayed spacecraft
Bus & Motor
Unknown
Mass
Unknown
Launch date (UTC)
2000-09-21 (25 years ago)
Launch vehicle
Unknown
Launch site
Air Force Western Test Range (AFWTR)
Object type
Payload
Rocket body
Debris
Shape & HBR
Unknown
Radar Cross Section
Small (<0.1 m²)

Expand to show TLE details & history

TLE from 9 months ago
0 NOAA 16 DEB
1 41431U 00055LL  24269.94478429  .01591912  00000-0  43753-1 0  9994
2 41431  98.9198 152.9140 0012637  69.5077 290.7517 15.34215454454697
Epoch: 2024-09-25T22:40Z
TLE epoch observation values (Epoch: 2024-09-25T22:40:29.362Z)
Latitude
0.00003°
Longitude
167.5543°
Altitude
463.259 km
Speed
7.637 km/s
True Right ascension
10h 11m 39s
True Declination
0° 00' 00"
Sunlit
Object was in daylight at epoch
Visualization orbit readout
Visualization observer readout
Orbital elements
Apogee altitude
468.912 km
Perigee altitude
451.629 km
Semi-major axis
6,838.407 km
Eccentricity
0.00126
Inclination
98.9198°
RAAN
152.914°
Arg. of periapsis
69.5077°
True anomaly
Unknown
Mean anomaly
290.7517°
Eccentric anomaly
Unknown
Mean motion
3.83805 °/min
Orbital period
93.8 mins
BSTAR
0.043753
Loading maneuver chart data...
Loading SW <> Apogee altitude chart data...
Loading historical data...
Loading historical data...
Loading historical data...
Loading historical data...
Loading historical data...
Loading historical data...
Loading historical data...

NOAA 16 DEB Visibility forecast

Observer location: undefined°, undefined°

Span
Click to sort rows by Start time (UTC) header in descending order
Start Az.
Max El. time (UTC)
Max El. Az.
Max El.
End time (UTC)
End Az.
4 mins2025-07-06 06:44:37.766Z328.451° NNW2025-07-06 06:46:37.766Z43.995° NE38.129°2025-07-06 06:48:37.766Z102.167° ESE
4 mins2025-07-06 06:58:37.766Z345.969° N2025-07-06 06:59:37.766Z23.399° NE38.916°2025-07-06 07:02:37.766Z111.535° ESE
4 mins2025-07-06 07:12:37.766Z339.656° N2025-07-06 07:14:37.766Z51.184° ENE39.188°2025-07-06 07:16:37.766Z105.818° ESE
5 mins2025-07-06 07:27:37.766Z334.502° NNW2025-07-06 07:29:37.766Z32.626° NE40.056°2025-07-06 07:32:37.766Z114.628° SE
5 mins2025-07-06 07:44:37.766Z341.978° N2025-07-06 07:46:37.766Z39.74° NE40.744°2025-07-06 07:49:37.766Z117.056° SE
7 mins2025-07-06 08:02:37.766Z337.223° NNW2025-07-06 08:05:37.766Z52.556° ENE41.454°2025-07-06 08:09:37.766Z131.048° SE
8 mins2025-07-06 08:23:37.766Z340.281° N2025-07-06 08:26:37.766Z41.23° NE42.134°2025-07-06 08:31:37.766Z135.894° SSE
11 mins2025-07-06 08:47:37.766Z337.183° NNW2025-07-06 08:52:37.766Z59.171° ENE43.083°2025-07-06 08:58:37.766Z143.318° SSE
17 mins2025-07-06 09:19:37.766Z340.632° N2025-07-06 09:26:37.766Z56.924° ENE43.984°2025-07-06 09:36:37.766Z153.141° SSE
40 mins2025-07-06 10:19:37.766Z344.815° N2025-07-06 10:38:37.766Z348.042° N30.346°2025-07-06 10:59:37.766Z349.528° N
17 mins2025-07-06 11:42:37.766Z180.97° SSW2025-07-06 11:50:37.766Z256.878° W44.401°2025-07-06 11:59:37.766Z356.708° N
11 mins2025-07-06 12:19:37.766Z189.518° SSW2025-07-06 12:24:37.766Z253.835° W43.401°2025-07-06 12:30:37.766Z357.794° N
9 mins2025-07-06 12:46:37.766Z197.712° SSW2025-07-06 12:50:37.766Z272.585° WNW42.636°2025-07-06 12:55:37.766Z3.258° NNE
6 mins2025-07-06 13:09:37.766Z214.661° SW2025-07-06 13:12:37.766Z299.724° NW41.381°2025-07-06 13:15:37.766Z358.996° N
6 mins2025-07-06 13:28:37.766Z219.979° SW2025-07-06 13:30:37.766Z273.168° WNW40.633°2025-07-06 13:34:37.766Z8.202° NNE
5 mins2025-07-06 13:45:37.766Z223.182° SW2025-07-06 13:47:37.766Z279.911° WNW39.742°2025-07-06 13:50:37.766Z2.602° NNE
4 mins2025-07-06 14:01:37.766Z234.624° WSW2025-07-06 14:03:37.766Z302.561° NW38.657°2025-07-06 14:05:37.766Z359.207° N
4 mins2025-07-06 14:16:37.766Z251.943° W2025-07-06 14:17:37.766Z288.367° WNW37.863°2025-07-06 14:20:37.766Z14.785° NNE
4 mins2025-07-06 14:29:37.766Z239.512° WSW2025-07-06 14:31:37.766Z310.804° NW36.63°2025-07-06 14:33:37.766Z10.033° NNE
4 mins2025-07-06 14:42:37.766Z247.076° WSW2025-07-06 14:43:37.766Z281.132° WNW35.313°2025-07-06 14:46:37.766Z19.662° NNE
|